EW8974 Weather Reports


Display with metric or nautical units.
time (UTC)temp
F
wind
direction
speed
MPH
gust
MPH
rain 1hr
in
rain 24hr
in
rain mn
in
humidity
%
barometer
mb
20260505124546 69 253 5.0 12.0 0.00 0.00 0.00 88 999.2
20260505124045 69 232 7.0 12.0 0.00 0.00 0.00 88 999.2
20260505123545 69 250 5.0 11.0 0.00 0.00 0.00 88 999.2
20260505123103 69 228 3.0 11.0 0.00 0.00 0.00 88 999.2
20260505122544 69 239 5.0 11.0 0.00 0.00 0.00 88 998.9
20260505122043 69 219 6.0 11.0 0.00 0.00 0.00 88 999.1
20260505121542 69 191 5.0 11.0 0.00 0.00 0.00 89 998.7
20260505121042 69 279 5.0 11.0 0.00 0.00 0.00 89 998.7
20260505120542 69 218 4.0 13.0 0.00 0.00 0.00 88 998.8
20260505120045 69 231 4.0 11.0 0.00 0.00 0.00 88 998.7
20260505115542 69 153 2.0 11.0 0.00 0.00 0.00 88 998.8
20260505115040 69 291 4.0 13.0 0.00 0.00 0.00 88 998.8
20260505114558 69 256 5.0 13.0 0.00 0.00 0.00 88 998.7
20260505114039 69 245 5.0 12.0 0.00 0.00 0.00 88 998.6
20260505113541 69 234 4.0 11.0 0.00 0.00 0.00 88 998.6
20260505113040 69 210 6.0 12.0 0.00 0.00 0.00 88 998.7
20260505112538 69 215 6.0 14.0 0.00 0.00 0.00 89 998.6
20260505112037 69 212 6.0 14.0 0.00 0.00 0.00 88 998.7
20260505111553 69 268 3.0 10.0 0.00 0.00 0.00 88 998.4
20260505111039 69 227 4.0 12.0 0.00 0.00 0.00 88 998.5
20260505110536 69 166 5.0 12.0 0.00 0.00 0.00 88 998.4
20260505102032 69 212 5.0 13.0 0.00 0.00 0.00 87 998.6
20260505101534 69 210 2.0 10.0 0.00 0.00 0.00 87 998.6
20260505101031 69 226 4.0 10.0 0.00 0.00 0.00 87 998.6
20260505100530 69 226 2.0 13.0 0.00 0.00 0.00 87 998.5
20260505100034 69 247 5.0 13.0 0.00 0.00 0.00 87 998.4
20260505095532 69 154 3.0 14.0 0.00 0.00 0.00 87 998.5
20260505095028 69 210 4.0 14.0 0.00 0.00 0.00 87 998.6
20260505094529 69 219 2.0 12.0 0.00 0.00 0.00 87 998.7
20260505094030 69 146 5.0 12.0 0.00 0.00 0.00 87 998.7
20260505093527 69 155 2.0 10.0 0.00 0.00 0.00 87 998.8
20260505093029 69 217 4.0 11.0 0.00 0.00 0.00 87 998.9
20260505092527 69 189 5.0 11.0 0.00 0.00 0.00 87 999.0
20260505092027 69 184 4.0 13.0 0.00 0.00 0.00 87 998.9
20260505091532 69 217 4.0 13.0 0.00 0.00 0.00 87 998.8
20260505091027 69 225 3.0 10.0 0.00 0.00 0.00 87 998.9
20260505090525 69 211 2.0 9.0 0.00 0.00 0.00 87 998.9
20260505090030 69 217 4.0 9.0 0.00 0.00 0.00 87 999.0
20260505085526 69 236 4.0 12.0 0.00 0.00 0.00 87 998.7
20260505085025 69 184 5.0 12.0 0.00 0.00 0.00 87 998.9
20260505084525 69 238 5.0 10.0 0.00 0.00 0.00 87 998.8
20260505084024 69 201 2.0 9.0 0.00 0.00 0.00 87 998.9
20260505083524 69 226 3.0 13.0 0.00 0.00 0.00 87 998.7
20260505083027 69 192 5.0 13.0 0.00 0.00 0.00 87 998.7
20260505082524 69 221 4.0 10.0 0.00 0.00 0.00 87 999.0
20260505082022 69 261 3.0 9.0 0.00 0.00 0.00 87 998.9
20260505081524 69 204 3.0 12.0 0.00 0.00 0.00 87 999.0
20260505081023 69 244 3.0 12.0 0.00 0.00 0.00 87 999.0
20260505080520 69 181 2.0 6.0 0.00 0.00 0.00 87 999.2
20260505080031 69 276 2.0 8.0 0.00 0.00 0.00 87 999.3
20260505075518 69 226 2.0 8.0 0.00 0.00 0.00 87 999.3
20260505075018 69 195 2.0 9.0 0.00 0.00 0.00 87 999.4
20260505074517 69 147 1.0 8.0 0.00 0.00 0.00 87 999.4
20260505074019 69 221 3.0 8.0 0.00 0.00 0.00 87 999.5
20260505073515 69 260 1.0 8.0 0.00 0.00 0.00 87 999.6
20260505073017 69 203 2.0 11.0 0.00 0.00 0.00 86 999.7
20260505072513 69 224 3.0 11.0 0.00 0.00 0.00 86 999.8
20260505072011 69 203 3.0 9.0 0.00 0.00 0.00 86 1000.0
20260505071511 69 164 4.0 10.0 0.00 0.00 0.00 86 1000.1
20260505071014 69 237 4.0 10.0 0.00 0.00 0.00 86 1000.2
20260505070510 69 255 3.0 11.0 0.00 0.00 0.00 85 1000.3
20260505070008 70 239 4.0 11.0 0.00 0.00 0.00 85 1000.2
20260505065508 70 196 3.0 13.0 0.00 0.00 0.00 85 1000.4
20260505065007 70 188 2.0 11.0 0.00 0.00 0.00 85 1000.4
20260505064507 70 207 4.0 11.0 0.00 0.00 0.00 84 1000.5
20260505064007 70 221 4.0 10.0 0.00 0.00 0.00 84 1000.7
20260505063505 70 291 3.0 13.0 0.00 0.00 0.00 84 1000.6
20260505063005 70 225 1.0 13.0 0.00 0.00 0.00 83 1000.6
20260505062504 70 237 4.0 11.0 0.00 0.00 0.00 83 1000.7
20260505062002 71 207 3.0 12.0 0.00 0.00 0.00 83 1000.7
20260505061503 71 229 5.0 12.0 0.00 0.00 0.00 83 1000.7
20260505061004 71 231 2.0 8.0 0.00 0.00 0.00 82 1000.6
20260505060501 71 207 3.0 9.0 0.00 0.00 0.00 82 1000.6
20260505060001 71 236 4.0 10.0 0.00 0.00 0.00 82 1000.6
20260505055600 71 239 3.0 10.0 0.00 0.00 0.00 82 1000.5
20260505055501 71 235 2.0 10.0 0.00 0.00 0.00 81 1000.5
20260505055103 71 224 3.0 10.0 0.00 0.00 0.00 81 1000.5
20260505054605 71 219 4.0 13.0 0.00 0.00 0.00 81 1000.4
20260505054059 71 208 4.0 13.0 0.00 0.00 0.00 81 1000.4
20260505053557 71 230 2.0 9.0 0.00 0.00 0.00 80 1000.5
20260505053110 71 250 1.0 9.0 0.00 0.00 0.00 80 1000.8
20260505052555 71 230 4.0 10.0 0.00 0.00 0.00 80 1000.9
20260505052055 71 177 3.0 10.0 0.00 0.00 0.00 80 1001.0
20260505051554 71 181 3.0 10.0 0.00 0.00 0.00 79 1000.9
20260505051052 72 205 3.0 10.0 0.00 0.00 0.00 79 1000.9
20260505050551 72 237 4.0 12.0 0.00 0.00 0.00 79 1001.0
20260505041610 72 237 3.0 11.0 0.00 0.00 0.00 78 1001.0
20260505041051 72 188 3.0 11.0 0.00 0.00 0.00 78 1001.0
20260505040550 72 155 2.0 11.0 0.00 0.00 0.00 78 1001.0
20260505040050 72 151 3.0 11.0 0.00 0.00 0.00 78 1000.9
20260505035552 72 232 4.0 11.0 0.00 0.00 0.00 78 1001.1
20260505035052 71 263 2.0 10.0 0.00 0.00 0.00 78 1000.9
20260505034549 71 243 3.0 8.0 0.00 0.00 0.00 78 1000.8
20260505034052 72 227 0.0 6.0 0.00 0.00 0.00 78 1000.6
20260505033549 72 179 1.0 8.0 0.00 0.00 0.00 78 1000.8
20260505033049 72 153 2.0 8.0 0.00 0.00 0.00 78 1000.8
20260505032552 72 212 1.0 7.0 0.00 0.00 0.00 78 1000.8
20260505032048 72 285 1.0 7.0 0.00 0.00 0.00 78 1000.8
20260505031553 72 187 1.0 7.0 0.00 0.00 0.00 78 1000.9
20260505031050 72 238 1.0 7.0 0.00 0.00 0.00 77 1001.1
20260505030548 72 200 1.0 8.0 0.00 0.00 0.00 77 1001.0
20260505030047 72 212 3.0 8.0 0.00 0.00 0.00 77 1001.0
20260505025547 72 205 2.0 7.0 0.00 0.00 0.00 77 1000.9
20260505025049 72 155 1.0 7.0 0.00 0.00 0.00 77 1001.0
20260505024548 72 189 2.0 5.0 0.00 0.00 0.00 76 1000.6
20260505024046 72 224 1.0 5.0 0.00 0.00 0.00 76 1000.6
20260505023546 72 243 1.0 6.0 0.00 0.00 0.00 76 1000.7
20260505023048 72 165 1.0 6.0 0.00 0.00 0.00 75 1000.5
20260505022548 72 239 1.0 7.0 0.00 0.00 0.00 75 1000.6
20260505022045 73 227 4.0 7.0 0.00 0.00 0.00 75 1000.5
20260505021547 73 225 2.0 5.0 0.00 0.00 0.00 75 1000.3
20260505021044 73 248 1.0 5.0 0.00 0.00 0.00 74 1000.6
20260505020545 73 253 2.0 7.0 0.00 0.00 0.00 74 1000.4
20260505020044 73 239 1.0 7.0 0.00 0.00 0.00 74 1000.4
20260505015546 73 235 2.0 6.0 0.00 0.00 0.00 73 1000.3
20260505015043 73 248 2.0 6.0 0.00 0.00 0.00 73 1000.5
20260505014545 73 225 1.0 4.0 0.00 0.00 0.00 72 1000.4
20260505014042 74 256 1.0 6.0 0.00 0.00 0.00 72 1000.5
20260505013542 74 260 1.0 7.0 0.00 0.00 0.00 71 1000.4
20260505013042 74 245 3.0 10.0 0.00 0.00 0.00 71 1000.3
20260505012542 74 323 3.0 9.0 0.00 0.00 0.00 71 1000.4
20260505012042 74 280 2.0 8.0 0.00 0.00 0.00 71 1000.5
20260505011542 74 262 3.0 8.0 0.00 0.00 0.00 70 1000.4
20260505011042 74 233 1.0 9.0 0.00 0.00 0.00 70 1000.4
20260505010541 75 234 2.0 9.0 0.00 0.00 0.00 70 1000.3
20260505010044 75 236 2.0 9.0 0.00 0.00 0.00 70 1000.3
20260505005540 75 205 2.0 9.0 0.00 0.00 0.00 69 1000.4
20260505005040 75 193 1.0 8.0 0.00 0.00 0.00 69 1000.5
20260505004540 75 212 2.0 7.0 0.00 0.00 0.00 68 1000.5
20260505004039 75 226 2.0 10.0 0.00 0.00 0.00 68 1000.6
20260505003539 76 220 2.0 8.0 0.00 0.00 0.00 68 1000.5
20260505003039 76 52 3.0 10.0 0.00 0.00 0.00 67 1000.6
20260505002541 76 162 4.0 9.0 0.00 0.00 0.00 67 1000.7
20260505002037 76 219 5.0 11.0 0.00 0.00 0.00 66 1000.8
20260505001547 76 219 5.0 15.0 0.00 0.00 0.00 66 1000.9
20260505001036 77 219 7.0 15.0 0.00 0.00 0.00 65 1000.9
20260505000536 77 250 4.0 14.0 0.00 0.00 0.00 65 1000.9
20260505000041 77 239 5.0 12.0 0.00 0.00 0.00 65 1000.9
20260504235536 77 208 4.0 14.0 0.00 0.00 0.00 65 1000.8
20260504235036 77 227 5.0 15.0 0.00 0.00 0.00 64 1000.9
20260504234536 78 185 5.0 15.0 0.00 0.00 0.00 64 1000.9
20260504234035 78 241 3.0 14.0 0.00 0.00 0.00 64 1000.9
20260504233538 78 165 5.0 16.0 0.00 0.00 0.00 64 1001.0
20260504233036 78 202 9.0 16.0 0.00 0.00 0.00 62 1001.1
20260504232535 78 227 7.0 15.0 0.00 0.00 0.00 62 1001.1
20260504232033 78 219 6.0 19.0 0.00 0.00 0.00 62 1001.0
20260504231546 78 228 7.0 15.0 0.00 0.00 0.00 62 1001.2
20260504231033 78 213 7.0 15.0 0.00 0.00 0.00 62 1001.2
20260504230533 78 210 5.0 15.0 0.00 0.00 0.00 62 1001.3
20260504230033 78 191 5.0 15.0 0.00 0.00 0.00 61 1001.4
20260504225531 79 205 7.0 18.0 0.00 0.00 0.00 61 1001.5
20260504225031 79 176 9.0 18.0 0.00 0.00 0.00 59 1001.5
20260504224536 79 114 6.0 15.0 0.00 0.00 0.00 60 1001.5
20260504224032 79 290 7.0 16.0 0.00 0.00 0.00 60 1001.6
20260504223534 79 175 7.0 16.0 0.00 0.00 0.00 60 1001.6
20260504223031 79 145 6.0 14.0 0.00 0.00 0.00 61 1001.6
20260504222531 79 266 6.0 15.0 0.00 0.00 0.00 61 1001.7
20260504222031 79 200 7.0 15.0 0.00 0.00 0.00 60 1001.7
20260504221531 79 269 3.0 12.0 0.00 0.00 0.00 61 1001.5
20260504221029 79 231 5.0 15.0 0.00 0.00 0.00 61 1001.6
20260504220528 79 248 8.0 19.0 0.00 0.00 0.00 61 1001.8
20260504220032 79 217 7.0 17.0 0.00 0.00 0.00 60 1001.8
20260504215529 80 213 5.0 21.0 0.00 0.00 0.00 59 1001.9
20260504215030 80 222 7.0 17.0 0.00 0.00 0.00 59 1001.8
20260504214527 80 267 9.0 17.0 0.00 0.00 0.00 59 1002.0
20260504214030 81 244 6.0 17.0 0.00 0.00 0.00 58 1002.0
20260504213528 80 158 6.0 17.0 0.00 0.00 0.00 59 1002.1
20260504213027 81 218 7.0 19.0 0.00 0.00 0.00 58 1002.1
20260504212524 81 250 9.0 19.0 0.00 0.00 0.00 58 1002.2
20260504212024 81 226 4.0 16.0 0.00 0.00 0.00 59 1002.3
20260504211527 80 160 6.0 16.0 0.00 0.00 0.00 58 1002.3
20260504211023 80 259 5.0 18.0 0.00 0.00 0.00 59 1002.4
20260504210522 81 233 8.0 18.0 0.00 0.00 0.00 57 1002.5
20260504210022 81 199 8.0 18.0 0.00 0.00 0.00 57 1002.7
20260504205520 81 227 7.0 18.0 0.00 0.00 0.00 58 1002.7
20260504205020 81 205 8.0 18.0 0.00 0.00 0.00 56 1002.8
20260504204521 82 225 6.0 17.0 0.00 0.00 0.00 56 1002.8
20260504204019 81 141 4.0 16.0 0.00 0.00 0.00 58 1002.8
20260504203518 81 228 8.0 16.0 0.00 0.00 0.00 57 1003.0
20260504203025 81 236 7.0 13.0 0.00 0.00 0.00 57 1003.2
20260504202519 80 153 7.0 17.0 0.00 0.00 0.00 58 1003.3
20260504202017 81 243 9.0 17.0 0.00 0.00 0.00 57 1003.3
20260504201517 80 233 5.0 18.0 0.00 0.00 0.00 58 1003.7
20260504201016 81 255 10.0 18.0 0.00 0.00 0.00 55 1003.6
20260504200514 81 113 4.0 12.0 0.00 0.00 0.00 57 1003.8
20260504200014 81 253 5.0 12.0 0.00 0.00 0.00 57 1004.0
20260504195513 81 175 6.0 16.0 0.00 0.00 0.00 56 1004.1
20260504195012 80 319 7.0 21.0 0.00 0.00 0.00 56 1004.1
20260504194525 80 240 5.0 21.0 0.00 0.00 0.00 59 1004.2
20260504194011 80 220 7.0 15.0 0.00 0.00 0.00 57 1004.2
20260504193512 80 214 8.0 15.0 0.00 0.00 0.00 57 1004.1
20260504193015 80 199 5.0 16.0 0.00 0.00 0.00 58 1004.2
20260504192509 80 238 8.0 16.0 0.00 0.00 0.00 57 1004.2
20260504192008 80 226 8.0 15.0 0.00 0.00 0.00 56 1004.4
20260504191507 80 153 4.0 14.0 0.00 0.00 0.00 58 1004.4
20260504191007 80 232 6.0 12.0 0.00 0.00 0.00 56 1004.6
20260504190506 80 215 5.0 14.0 0.00 0.00 0.00 59 1004.5
20260504190005 79 114 5.0 14.0 0.00 0.00 0.00 57 1004.6
20260504185504 80 233 6.0 14.0 0.00 0.00 0.00 57 1004.8
20260504185004 80 218 4.0 14.0 0.00 0.00 0.00 58 1004.7
20260504184509 79 194 4.0 14.0 0.00 0.00 0.00 58 1004.8
20260504184002 78 259 4.0 17.0 0.00 0.00 0.00 59 1004.8
20260504183502 79 237 10.0 17.0 0.00 0.00 0.00 56 1004.9
20260504183002 79 278 5.0 13.0 0.00 0.00 0.00 57 1004.8
20260504182603 78 283 3.0 15.0 0.00 0.00 0.00 58 1005.1
20260504182058 78 233 6.0 15.0 0.00 0.00 0.00 59 1005.1
20260504181603 78 137 5.0 15.0 0.00 0.00 0.00 58 1005.2
20260504181057 78 133 4.0 15.0 0.00 0.00 0.00 59 1005.2
20260504180557 77 246 8.0 16.0 0.00 0.00 0.00 59 1005.3
20260504180146 77 223 5.0 16.0 0.00 0.00 0.00 59 1005.5
20260504175554 77 171 8.0 17.0 0.00 0.00 0.00 57 1005.6
20260504175056 77 241 5.0 17.0 0.00 0.00 0.00 59 1005.6
20260504174552 77 185 8.0 17.0 0.00 0.00 0.00 58 1005.6
20260504174054 76 254 7.0 16.0 0.00 0.00 0.00 58 1005.7
20260504173553 77 216 7.0 16.0 0.00 0.00 0.00 57 1005.8
20260504173059 76 198 3.0 13.0 0.00 0.00 0.00 60 1005.7
20260504172549 76 251 7.0 13.0 0.00 0.00 0.00 57 1005.9
20260504172048 76 192 6.0 13.0 0.00 0.00 0.00 58 1006.1
20260504171548 76 201 6.0 13.0 0.00 0.00 0.00 57 1005.9
20260504171047 76 203 3.0 13.0 0.00 0.00 0.00 59 1006.2
20260504170545 75 205 6.0 13.0 0.00 0.00 0.00 58 1006.3
20260504151020 68 205 5.0 19.0 0.00 0.00 0.00 69 1007.5
20260504150520 68 205 9.0 19.0 0.00 0.00 0.00 69 1007.6
20260504141013 65 229 5.0 15.0 0.00 0.00 0.00 74 1008.0
20260504140509 65 194 5.0 12.0 0.00 0.00 0.00 74 1007.9
20260504130504 61 207 1.0 9.0 0.00 0.00 0.00 79 1008.0